DW2144 Weather Reports


Display with metric or nautical units.
time (UTC)temp
F
wind
direction
speed
MPH
gust
MPH
rain 1hr
in
rain 24hr
in
rain mn
in
humidity
%
barometer
mb
20260507200049 67 327 0.0 2.0 0.00 0.00 0.00 78 1017.1
20260507194547 66 327 0.0 3.0 0.00 0.00 0.00 78 1017.2
20260507193040 65 331 0.0 2.0 0.00 0.00 0.00 81 1017.4
20260507191536 64 329 0.0 3.0 0.00 0.00 0.00 82 1017.5
20260507190033 62 317 0.0 4.0 0.00 0.00 0.00 84 1017.7
20260507184528 60 282 0.0 0.0 0.00 0.00 0.00 85 1017.8
20260507183039 59 282 0.0 1.0 0.00 0.00 0.00 86 1017.9
20260507181521 58 282 0.0 1.0 0.00 0.00 0.00 87 1017.9
20260507180020 58 282 0.0 1.0 0.00 0.00 0.00 87 1018.0
20260507174518 57 282 0.0 1.0 0.00 0.00 0.00 87 1018.0
20260507173014 56 282 0.0 0.0 0.00 0.00 0.00 86 1018.0
20260507171512 55 282 0.0 0.0 0.00 0.00 0.00 87 1018.1
20260507170010 55 282 0.0 0.0 0.00 0.00 0.00 86 1018.2
20260507164508 54 282 0.0 0.0 0.00 0.00 0.00 86 1018.1
20260507163006 54 282 0.0 0.0 0.00 0.00 0.00 86 1018.2
20260507161506 54 282 0.0 0.0 0.00 0.00 0.00 85 1018.2
20260507160012 53 282 0.0 0.0 0.00 0.00 0.00 86 1018.3
20260507154503 53 282 0.0 0.0 0.00 0.00 0.00 86 1018.1
20260507153004 53 282 0.0 0.0 0.00 0.00 0.00 85 1018.2
20260507151502 53 282 0.0 0.0 0.00 0.00 0.00 85 1018.2
20260507150003 53 282 0.0 0.0 0.00 0.00 0.00 85 1018.3
20260507144600 53 282 0.0 0.0 0.00 0.00 0.00 85 1018.3
20260507143059 53 282 0.0 0.0 0.00 0.00 0.00 85 1018.2
20260507141600 53 282 0.0 0.0 0.00 0.00 0.00 86 1018.1
20260507140106 53 282 0.0 0.0 0.00 0.00 0.00 86 1017.9
20260507134556 53 282 0.0 0.0 0.00 0.00 0.00 86 1017.6
20260507133101 53 282 0.0 0.0 0.00 0.00 0.00 86 1017.4
20260507131554 53 282 0.0 0.0 0.00 0.00 0.00 86 1017.5
20260507130105 53 282 0.0 0.0 0.00 0.00 0.00 86 1017.3
20260507124632 53 282 0.0 0.0 0.00 0.00 0.00 86 1017.4
20260507123053 53 282 0.0 0.0 0.00 0.00 0.00 86 1017.3
20260507121552 53 282 0.0 0.0 0.00 0.00 0.00 87 1017.3
20260507120052 53 282 0.0 0.0 0.00 0.00 0.00 87 1017.3
20260507114609 53 282 0.0 0.0 0.00 0.00 0.00 87 1017.5
20260507113053 53 282 0.0 0.0 0.00 0.00 0.00 87 1017.5
20260507111548 53 282 0.0 0.0 0.00 0.00 0.00 87 1017.6
20260507110049 53 282 0.0 0.0 0.00 0.00 0.00 87 1017.6
20260507104553 53 282 0.0 0.0 0.00 0.00 0.00 87 1017.6
20260507103047 53 282 0.0 0.0 0.00 0.00 0.00 87 1017.7
20260507101549 53 282 0.0 0.0 0.00 0.00 0.00 87 1017.7
20260507100046 53 282 0.0 0.0 0.00 0.00 0.00 87 1017.7
20260507094545 53 282 0.0 0.0 0.00 0.00 0.00 87 1017.7
20260507093046 53 282 0.0 0.0 0.00 0.00 0.00 87 1017.8
20260507091545 53 282 0.0 0.0 0.00 0.00 0.00 87 1017.9
20260507090043 53 282 0.0 0.0 0.00 0.00 0.00 87 1018.0
20260507084542 53 282 0.0 1.0 0.00 0.00 0.00 87 1018.0
20260507083041 54 282 0.0 0.0 0.00 0.00 0.00 87 1017.9
20260507081541 54 282 0.0 0.0 0.00 0.00 0.00 87 1017.9
20260507080039 54 282 0.0 0.0 0.00 0.00 0.00 87 1017.8
20260507074544 54 282 0.0 0.0 0.00 0.00 0.00 87 1017.6
20260507073043 53 282 0.0 0.0 0.00 0.00 0.00 87 1017.8
20260507071536 53 282 0.0 0.0 0.00 0.00 0.00 87 1017.7
20260507070034 53 282 0.0 0.0 0.00 0.00 0.00 86 1017.6
20260507064530 53 282 0.0 0.0 0.00 0.00 0.00 86 1017.5
20260507063040 53 282 0.0 0.0 0.00 0.00 0.00 86 1017.4
20260507061529 54 282 0.0 0.0 0.00 0.00 0.00 85 1017.3
20260507060040 55 282 0.0 0.0 0.00 0.00 0.00 84 1017.3
20260507054523 55 282 0.0 0.0 0.00 0.00 0.00 85 1017.2
20260507053024 56 282 0.0 0.0 0.00 0.00 0.00 83 1017.1
20260507051523 57 282 0.0 0.0 0.00 0.00 0.00 83 1017.0
20260507050027 57 282 0.0 0.0 0.00 0.00 0.00 82 1017.0
20260507044522 58 282 0.0 0.0 0.00 0.00 0.00 81 1016.9
20260507043022 59 282 0.0 1.0 0.00 0.00 0.00 80 1016.7
20260507041521 60 282 0.0 0.0 0.00 0.00 0.00 80 1016.7
20260507040020 60 282 0.0 1.0 0.00 0.00 0.00 78 1016.6
20260507034530 61 282 0.0 3.0 0.00 0.00 0.00 77 1016.4
20260507033020 63 282 0.0 0.0 0.00 0.00 0.00 75 1016.4
20260507031519 64 281 0.0 0.0 0.00 0.00 0.00 73 1016.2
20260507030019 65 281 0.0 3.0 0.00 0.00 0.00 71 1016.2
20260507024522 66 316 0.0 1.0 0.00 0.00 0.00 69 1016.0
20260507023022 67 316 0.0 3.0 0.00 0.00 0.00 67 1015.8
20260507021516 68 319 0.0 5.0 0.00 0.00 0.00 66 1015.7
20260507020027 69 330 0.0 3.0 0.00 0.00 0.00 66 1015.8
20260507014514 69 329 0.0 2.0 0.00 0.00 0.00 65 1015.9
20260507013023 69 350 0.0 3.0 0.00 0.00 0.00 65 1015.9
20260507011513 70 78 1.0 4.0 0.00 0.00 0.00 63 1016.0
20260507010013 70 61 0.0 5.0 0.00 0.00 0.00 65 1016.0
20260507004512 70 349 0.0 4.0 0.00 0.00 0.00 65 1016.0
20260507003011 71 336 0.0 4.0 0.00 0.00 0.00 63 1015.9
20260507001511 72 341 0.0 5.0 0.00 0.00 0.00 62 1016.0
20260507000013 72 51 0.0 3.0 0.00 0.00 0.00 64 1016.0
20260506234518 73 53 0.0 3.0 0.00 0.00 0.00 63 1016.0
20260506233009 73 355 0.0 3.0 0.00 0.00 0.00 62 1015.9
20260506231507 73 355 0.0 3.0 0.00 0.00 0.00 64 1016.1
20260506230006 74 355 0.0 3.0 0.00 0.00 0.00 63 1016.3
20260506224505 74 355 0.0 4.0 0.00 0.00 0.00 64 1016.5
20260506223003 75 343 0.0 4.0 0.00 0.00 0.00 62 1016.5
20260506221500 75 345 0.0 4.0 0.00 0.00 0.00 62 1016.5
20260506220104 75 66 0.0 3.0 0.00 0.00 0.00 63 1016.8
20260506214601 75 44 0.0 1.0 0.00 0.00 0.00 62 1017.0
20260506213055 74 44 0.0 1.0 0.00 0.00 0.00 62 1017.1
20260506211607 74 44 0.0 0.0 0.00 0.00 0.00 62 1017.3
20260506210052 74 44 0.0 4.0 0.00 0.00 0.00 65 1017.5
20260506204548 74 46 0.0 0.0 0.00 0.00 0.00 64 1017.7
20260506203045 74 46 0.0 1.0 0.00 0.00 0.00 63 1017.6
20260506201541 73 47 0.0 3.0 0.00 0.00 0.00 65 1018.0